CW9300 Weather Reports


time (UTC)temp
F
wind
direction
speed
knots
gust
knots
rain 1hr
in
rain 24hr
in
rain mn
in
humidity
%
barometer
mb
20260504045600 43 153 0.0 0.0 0.00 0.00 0.00 72 1014.1
20260504044603 43 154 0.0 0.0 0.00 0.00 0.00 72 1014.1
20260504043549 44 154 0.0 0.0 0.00 0.00 0.00 72 1014.0
20260504042515 44 150 0.0 0.0 0.00 0.00 0.00 71 1014.0
20260504041501 45 130 0.0 0.0 0.00 0.00 0.00 70 1013.9
20260504040509 45 130 0.0 0.0 0.00 0.00 0.00 69 1014.0
20260504034311 47 142 0.0 0.0 0.00 0.00 0.00 66 1014.0
20260504033312 48 143 0.0 0.0 0.00 0.00 0.00 63 1014.0
20260504032316 48 143 0.0 0.0 0.00 0.00 0.00 61 1014.0
20260504031312 49 143 0.9 2.6 0.00 0.00 0.00 58 1013.8
20260504030308 49 134 0.0 2.6 0.00 0.00 0.00 59 1013.8
20260504025327 49 66 0.0 2.6 0.00 0.00 0.00 57 1013.9
20260504024352 50 147 0.0 2.6 0.00 0.00 0.00 55 1013.9
20260504023332 51 69 0.0 0.0 0.00 0.00 0.00 53 1013.9
20260504022343 52 72 0.0 1.7 0.00 0.00 0.00 51 1013.8
20260504021355 52 78 0.9 1.7 0.00 0.00 0.00 50 1013.8
20260504015255 53 67 0.0 1.7 0.00 0.00 0.00 48 1013.8
20260504013142 54 165 0.9 2.6 0.00 0.00 0.00 45 1013.7
20260504012120 54 139 0.9 1.7 0.00 0.00 0.00 44 1013.4
20260504010021 55 152 0.9 3.5 0.00 0.00 0.00 43 1013.4
20260504005026 56 215 0.0 0.0 0.00 0.00 0.00 42 1013.3
20260504004015 56 192 0.0 0.0 0.00 0.00 0.00 42 1013.2
20260504002954 57 203 2.6 9.6 0.00 0.00 0.00 40 1013.3
20260504001947 57 242 1.7 9.6 0.00 0.00 0.00 39 1013.1
20260504000928 58 251 1.7 8.7 0.00 0.00 0.00 38 1013.1
20260503235931 58 235 2.6 13.0 0.00 0.00 0.00 37 1013.1
20260503234927 59 264 4.3 13.0 0.00 0.00 0.00 37 1013.0
20260503233904 59 237 3.5 7.8 0.00 0.00 0.00 36 1012.9
20260503232906 60 199 2.6 10.4 0.00 0.00 0.00 36 1012.9
20260503231911 60 228 3.5 10.4 0.00 0.00 0.00 36 1012.9
20260503230856 60 225 3.5 8.7 0.00 0.00 0.00 35 1012.8
20260503225842 60 233 3.5 8.7 0.00 0.00 0.00 35 1012.9
20260503223658 61 186 4.3 9.6 0.00 0.00 0.00 34 1012.8
20260503222702 60 178 6.1 11.3 0.00 0.00 0.00 35 1012.8
20260503221655 60 188 5.2 14.8 0.00 0.00 0.00 35 1013.0
20260503214325 61 305 4.3 11.3 0.00 0.00 0.00 34 1013.1
20260503213254 61 239 3.5 7.8 0.00 0.00 0.00 35 1013.0
20260503212228 61 269 6.1 14.8 0.00 0.00 0.00 34 1013.1
20260503211225 61 244 5.2 14.8 0.00 0.00 0.00 35 1013.0
20260503210231 61 250 6.1 11.3 0.00 0.00 0.00 33 1013.0
20260503204114 60 248 7.0 13.9 0.00 0.00 0.00 34 1013.1
20260503203118 61 245 4.3 13.0 0.00 0.00 0.00 33 1013.0
20260503202144 61 211 5.2 14.8 0.00 0.00 0.00 35 1013.1
20260503201149 61 258 6.1 14.8 0.00 0.00 0.00 34 1013.2
20260503200148 60 195 5.2 12.2 0.00 0.00 0.00 35 1013.2
20260503195113 59 242 6.1 11.3 0.00 0.00 0.00 34 1013.4
20260503194104 61 242 3.5 10.4 0.00 0.00 0.00 35 1013.5
20260503193041 60 267 6.1 13.0 0.00 0.00 0.00 35 1013.8
20260503192101 59 315 7.0 15.6 0.00 0.00 0.00 36 1013.8
20260503191125 60 292 7.0 15.6 0.00 0.00 0.00 35 1013.9
20260503190136 60 279 3.5 10.4 0.00 0.00 0.00 36 1013.9
20260503184025 60 248 3.5 15.6 0.00 0.00 0.00 36 1014.2
20260503181928 58 323 4.3 11.3 0.00 0.00 0.00 39 1014.3
20260503180937 57 236 5.2 15.6 0.00 0.00 0.00 38 1014.5
20260503175945 57 252 4.3 15.6 0.00 0.00 0.00 39 1014.5
20260503174942 56 250 3.5 13.0 0.00 0.00 0.00 38 1014.6
20260503173927 56 240 4.3 11.3 0.00 0.00 0.00 39 1014.8
20260503172906 57 230 3.5 13.9 0.00 0.00 0.00 39 1014.8
20260503171835 56 273 5.2 13.9 0.00 0.00 0.00 38 1015.0
20260503150254 52 272 2.6 8.7 0.00 0.00 0.00 40 1016.2
20260503140226 49 257 2.6 8.7 0.00 0.00 0.00 49 1016.2
20260503130949 47 190 2.6 8.7 0.00 0.00 0.00 57 1016.5
20260503110646 33 296 0.0 0.0 0.00 0.00 0.00 83 1016.2
20260503081516 37 296 0.0 0.0 0.00 0.00 0.00 72 1014.8
20260503080541 37 296 0.0 0.0 0.00 0.00 0.00 71 1014.9
20260503072426 39 296 0.0 0.0 0.00 0.00 0.00 68 1014.7
20260503071435 39 298 0.0 0.0 0.00 0.00 0.00 68 1014.7
20260503070402 40 298 0.0 0.0 0.00 0.00 0.00 67 1014.6
20260503054432 42 305 0.0 2.6 0.00 0.00 0.00 64 1014.5
20260503053430 42 286 0.0 4.3 0.00 0.00 0.00 63 1014.4
20260503052430 43 285 0.9 4.3 0.00 0.00 0.00 63 1014.5
20260503051442 43 313 0.9 2.6 0.00 0.00 0.00 63 1014.4
20260503050500 43 310 0.9 6.1 0.00 0.00 0.00 61 1014.4